Radiation Dose at Monitoring Post of Fukushima Daini Nuclear Power Station
Date,Time,MP-1(microSv/h),MP-2(microSv/h),MP-3(microSv/h),MP-4(microSv/h),MP-5(microSv/h),MP-6(microSv/h),MP-7(microSv/h),Wind Direction,Wind Velocity(m/s),Rain
2020/03/25,00:00,0.184,0.170,0.274,0.253,0.260,0.142,0.086,west-northwest,4.5,No
2020/03/25,00:10,0.185,0.169,0.276,0.253,0.260,0.142,0.087,northwest,5.0,No
2020/03/25,00:20,0.185,0.169,0.275,0.255,0.259,0.142,0.086,northwest,5.0,No
2020/03/25,00:30,0.185,0.169,0.276,0.254,0.259,0.142,0.086,northwest,4.2,No
2020/03/25,00:40,0.185,0.170,0.275,0.253,0.260,0.143,0.086,northwest,3.0,No
2020/03/25,00:50,0.184,0.168,0.275,0.253,0.259,0.142,0.087,west-northwest,2.8,No
2020/03/25,01:00,0.184,0.169,0.276,0.255,0.260,0.142,0.087,west-northwest,2.4,No
2020/03/25,01:10,0.184,0.170,0.275,0.253,0.260,0.141,0.086,west-northwest,3.4,No
2020/03/25,01:20,0.185,0.169,0.275,0.254,0.260,0.141,0.086,northwest,4.5,No
2020/03/25,01:30,0.184,0.169,0.275,0.254,0.260,0.142,0.087,northwest,4.0,No
2020/03/25,01:40,0.184,0.170,0.275,0.254,0.259,0.142,0.086,west-northwest,5.4,No
2020/03/25,01:50,0.184,0.169,0.276,0.253,0.258,0.143,0.086,west-northwest,6.1,No
2020/03/25,02:00,0.184,0.168,0.275,0.253,0.258,0.142,0.087,west-northwest,4.4,No
2020/03/25,02:10,0.185,0.169,0.275,0.254,0.261,0.142,0.087,west-northwest,2.9,No
2020/03/25,02:20,0.185,0.169,0.275,0.253,0.259,0.142,0.086,west-northwest,2.6,No
2020/03/25,02:30,0.185,0.168,0.276,0.254,0.259,0.142,0.086,west,2.9,No
2020/03/25,02:40,0.184,0.170,0.276,0.254,0.259,0.143,0.086,west-northwest,2.2,No
2020/03/25,02:50,0.184,0.168,0.276,0.254,0.260,0.142,0.086,west-northwest,3.1,No
2020/03/25,03:00,0.185,0.169,0.275,0.252,0.260,0.142,0.086,west-northwest,3.6,No
2020/03/25,03:10,0.184,0.169,0.276,0.253,0.259,0.141,0.086,northwest,3.9,No
2020/03/25,03:20,0.185,0.169,0.276,0.254,0.260,0.142,0.087,northwest,2.8,No
2020/03/25,03:30,0.185,0.170,0.276,0.254,0.260,0.142,0.085,west,1.9,No
2020/03/25,03:40,0.184,0.169,0.276,0.254,0.260,0.141,0.087,west,2.1,No
2020/03/25,03:50,0.185,0.170,0.276,0.252,0.260,0.142,0.086,west-northwest,3.9,No
2020/03/25,04:00,0.185,0.169,0.275,0.254,0.260,0.142,0.086,west-northwest,4.4,No
2020/03/25,04:10,0.184,0.169,0.275,0.253,0.260,0.142,0.085,west-northwest,4.2,No
2020/03/25,04:20,0.184,0.170,0.276,0.254,0.259,0.142,0.087,west-northwest,4.1,No
2020/03/25,04:30,0.184,0.169,0.275,0.252,0.260,0.142,0.087,west-northwest,4.1,No
2020/03/25,04:40,0.185,0.169,0.276,0.254,0.260,0.142,0.088,northwest,4.3,No
2020/03/25,04:50,0.185,0.169,0.274,0.254,0.259,0.142,0.086,northwest,3.9,No
2020/03/25,05:00,0.185,0.169,0.275,0.254,0.259,0.142,0.086,west-northwest,5.2,No
2020/03/25,05:10,0.184,0.169,0.275,0.253,0.259,0.142,0.087,west-northwest,6.2,No
2020/03/25,05:20,0.184,0.169,0.276,0.254,0.260,0.142,0.087,west-northwest,5.8,No
2020/03/25,05:30,0.185,0.169,0.276,0.253,0.259,0.141,0.086,west-northwest,6.4,No
2020/03/25,05:40,0.184,0.169,0.276,0.253,0.259,0.142,0.087,west-northwest,7.1,No
2020/03/25,05:50,0.184,0.169,0.275,0.253,0.259,0.142,0.086,west-northwest,6.6,No
2020/03/25,06:00,0.185,0.169,0.274,0.252,0.259,0.142,0.086,west-northwest,6.0,No
2020/03/25,06:10,0.183,0.170,0.276,0.253,0.260,0.142,0.087,west-northwest,5.7,No
2020/03/25,06:20,0.184,0.167,0.276,0.253,0.261,0.142,0.086,west-northwest,5.6,No
2020/03/25,06:30,0.184,0.169,0.274,0.254,0.260,0.142,0.087,west-northwest,5.5,No
2020/03/25,06:40,0.184,0.169,0.276,0.253,0.260,0.142,0.086,west-northwest,5.6,No
2020/03/25,06:50,0.184,0.169,0.275,0.252,0.260,0.142,0.086,northwest,5.5,No
2020/03/25,07:00,0.184,0.169,0.275,0.253,0.260,0.143,0.085,northwest,5.5,No
2020/03/25,07:10,0.184,0.169,0.275,0.253,0.259,0.142,0.086,northwest,6.2,No
2020/03/25,07:20,0.184,0.169,0.276,0.253,0.258,0.143,0.085,northwest,5.7,No
2020/03/25,07:30,0.183,0.169,0.274,0.252,0.260,0.143,0.086,west-northwest,4.8,No
2020/03/25,07:40,0.184,0.168,0.273,0.252,0.260,0.142,0.085,northwest,4.9,No
2020/03/25,07:50,0.183,0.168,0.273,0.253,0.261,0.142,0.086,northwest,5.2,No
2020/03/25,08:00,0.184,0.169,0.274,0.252,0.259,0.142,0.085,northwest,6.5,No
2020/03/25,08:10,0.184,0.168,0.273,0.252,0.259,0.140,0.085,north-northwest,6.8,No
2020/03/25,08:20,0.183,0.169,0.274,0.252,0.259,0.142,0.086,north-northwest,3.7,No
2020/03/25,08:30,0.185,0.169,0.275,0.252,0.260,0.142,0.086,north-northeast,2.2,No
2020/03/25,08:40,0.185,0.170,0.273,0.253,0.260,0.143,0.086,east-northeast,1.5,No
2020/03/25,08:50,0.184,0.168,0.275,0.252,0.260,0.142,0.086,west-northwest,5.3,No
2020/03/25,09:00,0.185,0.170,0.275,0.253,0.260,0.142,0.086,northwest,6.3,No
2020/03/25,09:10,0.184,0.169,0.275,0.254,0.260,0.142,0.085,northwest,6.9,No
2020/03/25,09:20,0.183,0.169,0.274,0.251,0.260,0.142,0.086,west-northwest,7.1,No
2020/03/25,09:30,0.184,0.169,0.276,0.253,0.260,0.141,0.086,northwest,7.8,No
2020/03/25,09:40,0.183,0.167,0.275,0.251,0.258,0.141,0.086,northwest,8.2,No
2020/03/25,09:50,0.184,0.168,0.275,0.251,0.259,0.142,0.086,northwest,5.1,No
2020/03/25,10:00,0.183,0.168,0.276,0.254,0.260,0.142,0.086,west-northwest,7.1,No
2020/03/25,10:10,0.184,0.168,0.275,0.252,0.258,0.141,0.086,west-northwest,5.4,No
2020/03/25,10:20,0.183,0.169,0.275,0.254,0.262,0.142,0.086,west-northwest,6.6,No
2020/03/25,10:30,0.183,0.169,0.277,0.253,0.259,0.141,0.086,northwest,6.6,No
2020/03/25,10:40,0.184,0.169,0.273,0.253,0.262,0.141,0.086,north-northwest,7.3,No
2020/03/25,10:50,0.182,0.168,0.274,0.252,0.258,0.141,0.085,northeast,4.6,No
2020/03/25,11:00,0.184,0.168,0.274,0.251,0.261,0.141,0.085,east-northeast,4.5,No
2020/03/25,11:10,0.182,0.168,0.276,0.254,0.259,0.142,0.086,east-southeast,4.8,No
2020/03/25,11:20,0.184,0.169,0.276,0.253,0.260,0.142,0.086,east-southeast,4.7,No
2020/03/25,11:30,0.183,0.169,0.275,0.253,0.261,0.142,0.086,east,4.4,No
2020/03/25,11:40,0.183,0.169,0.276,0.254,0.259,0.141,0.086,east,4.2,No
2020/03/25,11:50,0.184,0.168,0.275,0.253,0.260,0.142,0.086,east-northeast,3.4,No
2020/03/25,12:00,0.184,0.170,0.275,0.254,0.259,0.141,0.085,east-northeast,4.9,No
2020/03/25,12:10,0.185,0.170,0.277,0.252,0.260,0.143,0.086,east-northeast,4.4,No
2020/03/25,12:20,0.184,0.169,0.276,0.254,0.259,0.141,0.086,east-northeast,2.7,No
2020/03/25,12:30,0.184,0.169,0.275,0.253,0.260,0.142,0.085,east,3.5,No
2020/03/25,12:40,0.184,0.169,0.275,0.253,0.261,0.142,0.086,east-southeast,3.0,No
2020/03/25,12:50,0.184,0.168,0.274,0.253,0.260,0.142,0.086,east-southeast,2.0,No
2020/03/25,13:00,0.183,0.169,0.276,0.252,0.262,0.142,0.086,southeast,3.1,No
2020/03/25,13:10,0.185,0.169,0.274,0.254,0.259,0.141,0.086,southeast,3.2,No
2020/03/25,13:20,0.182,0.169,0.277,0.252,0.260,0.140,0.087,east-southeast,3.6,No
2020/03/25,13:30,0.184,0.168,0.274,0.253,0.258,0.142,0.086,southeast,2.6,No
2020/03/25,13:40,0.183,0.169,0.276,0.253,0.261,0.142,0.085,south-southeast,2.1,No
2020/03/25,13:50,0.184,0.168,0.275,0.254,0.259,0.141,0.085,southeast,3.1,No
2020/03/25,14:00,0.183,0.168,0.276,0.252,0.260,0.143,0.086,southeast,3.5,No
2020/03/25,14:10,0.183,0.169,0.275,0.254,0.259,0.142,0.086,south-southeast,3.1,No
2020/03/25,14:20,0.183,0.169,0.274,0.254,0.261,0.141,0.086,southeast,3.5,No
2020/03/25,14:30,0.184,0.169,0.274,0.253,0.259,0.142,0.086,southeast,2.9,No
2020/03/25,14:40,0.184,0.169,0.274,0.255,0.261,0.143,0.086,southeast,3.2,No
2020/03/25,14:50,0.184,0.169,0.275,0.252,0.257,0.142,0.086,southeast,3.4,No
2020/03/25,15:00,0.183,0.170,0.275,0.255,0.261,0.142,0.086,south-southeast,3.2,No
2020/03/25,15:10,0.184,0.169,0.275,0.254,0.261,0.142,0.086,southeast,3.5,No
2020/03/25,15:20,0.183,0.169,0.277,0.254,0.261,0.143,0.085,south-southeast,2.5,No
2020/03/25,15:30,0.184,0.170,0.276,0.256,0.259,0.142,0.086,south-southeast,3.1,No
2020/03/25,15:40,0.182,0.168,0.277,0.253,0.261,0.141,0.086,south-southeast,4.0,No
2020/03/25,15:50,0.185,0.170,0.277,0.255,0.260,0.141,0.086,southeast,4.4,No
2020/03/25,16:00,0.183,0.169,0.277,0.255,0.260,0.141,0.086,south-southeast,4.5,No
2020/03/25,16:10,0.184,0.169,0.277,0.255,0.262,0.143,0.086,south-southeast,4.4,No
2020/03/25,16:20,0.185,0.169,0.278,0.255,0.260,0.141,0.085,south-southeast,3.8,No
2020/03/25,16:30,0.185,0.169,0.276,0.255,0.261,0.142,0.085,south-southeast,4.5,No
2020/03/25,16:40,0.185,0.169,0.276,0.255,0.259,0.143,0.085,south-southeast,4.9,No
2020/03/25,16:50,0.184,0.169,0.277,0.254,0.260,0.142,0.086,south-southeast,5.3,No
2020/03/25,17:00,0.184,0.170,0.278,0.254,0.262,0.142,0.086,southeast,4.8,No
2020/03/25,17:10,0.184,0.169,0.275,0.254,0.259,0.142,0.086,south-southeast,4.2,No
2020/03/25,17:20,0.184,0.168,0.275,0.255,0.261,0.143,0.086,south-southeast,3.4,No
2020/03/25,17:30,0.184,0.169,0.278,0.254,0.259,0.143,0.086,south-southeast,4.2,No
2020/03/25,17:40,0.185,0.169,0.276,0.254,0.260,0.143,0.086,south-southeast,4.7,No
2020/03/25,17:50,0.184,0.169,0.276,0.253,0.261,0.144,0.086,south,2.5,No
2020/03/25,18:00,0.183,0.169,0.276,0.255,0.261,0.142,0.087,south,1.7,No
2020/03/25,18:10,0.184,0.170,0.276,0.254,0.259,0.142,0.086,northwest,1.6,No
2020/03/25,18:20,0.184,0.169,0.276,0.253,0.260,0.142,0.086,west-northwest,4.1,No
2020/03/25,18:30,0.183,0.169,0.275,0.254,0.261,0.143,0.085,west-northwest,4.5,No
2020/03/25,18:40,0.185,0.169,0.277,0.255,0.260,0.142,0.085,west-northwest,4.7,No
2020/03/25,18:50,0.184,0.170,0.277,0.256,0.259,0.143,0.086,west-northwest,5.4,No
2020/03/25,19:00,0.184,0.168,0.276,0.253,0.261,0.142,0.086,west-northwest,6.0,No
2020/03/25,19:10,0.184,0.169,0.275,0.254,0.260,0.142,0.085,west-northwest,4.4,No
2020/03/25,19:20,0.185,0.170,0.276,0.254,0.260,0.143,0.085,northwest,5.4,No
2020/03/25,19:30,0.185,0.169,0.277,0.255,0.260,0.143,0.086,northwest,5.8,No
2020/03/25,19:40,0.184,0.168,0.276,0.253,0.260,0.143,0.086,west-northwest,6.1,No
2020/03/25,19:50,0.184,0.169,0.275,0.254,0.259,0.142,0.086,northwest,5.3,No
2020/03/25,20:00,0.184,0.169,0.277,0.254,0.260,0.141,0.086,northwest,3.8,No
2020/03/25,20:10,0.185,0.169,0.276,0.254,0.260,0.142,0.086,northwest,5.7,No
2020/03/25,20:20,0.183,0.169,0.276,0.254,0.259,0.143,0.087,west-northwest,6.3,No
2020/03/25,20:30,0.184,0.170,0.276,0.254,0.259,0.142,0.087,west-northwest,5.7,No
2020/03/25,20:40,0.184,0.169,0.276,0.253,0.261,0.142,0.086,west-northwest,5.9,No
2020/03/25,20:50,0.184,0.168,0.277,0.254,0.260,0.142,0.086,west-northwest,5.0,No
2020/03/25,21:00,0.184,0.169,0.276,0.254,0.259,0.142,0.086,northwest,3.5,No
2020/03/25,21:10,0.185,0.169,0.276,0.253,0.260,0.142,0.085,north-northwest,3.4,No
2020/03/25,21:20,0.185,0.169,0.276,0.254,0.261,0.142,0.085,north,3.5,No
2020/03/25,21:30,0.186,0.169,0.276,0.254,0.259,0.142,0.086,north-northwest,4.2,No
2020/03/25,21:40,0.184,0.168,0.277,0.253,0.261,0.143,0.087,northwest,4.7,No
2020/03/25,21:50,0.186,0.168,0.277,0.254,0.260,0.142,0.086,northwest,5.1,No
2020/03/25,22:00,0.185,0.169,0.276,0.255,0.262,0.142,0.085,northwest,4.5,No
2020/03/25,22:10,0.184,0.169,0.276,0.254,0.260,0.143,0.087,northwest,3.0,No
2020/03/25,22:20,0.185,0.170,0.277,0.254,0.260,0.142,0.086,northwest,2.6,No
2020/03/25,22:30,0.184,0.169,0.276,0.254,0.260,0.142,0.086,north,2.2,No
2020/03/25,22:40,0.185,0.170,0.276,0.253,0.260,0.141,0.087,north,2.1,No
2020/03/25,22:50,0.184,0.169,0.277,0.254,0.261,0.143,0.086,north-northwest,1.8,No
2020/03/25,23:00,0.184,0.170,0.277,0.255,0.259,0.143,0.086,northwest,3.5,No
2020/03/25,23:10,0.184,0.171,0.277,0.255,0.260,0.142,0.085,northwest,3.1,No
2020/03/25,23:20,0.185,0.169,0.275,0.254,0.262,0.143,0.086,west-northwest,3.6,No
2020/03/25,23:30,0.184,0.170,0.277,0.253,0.261,0.141,0.086,west-northwest,2.0,No
2020/03/25,23:40,0.184,0.169,0.276,0.255,0.261,0.142,0.086,-,CALM,No
2020/03/25,23:50,0.185,0.170,0.276,0.255,0.259,0.142,0.086,east-southeast,1.1,No
